Погода в Булгакове

Россия / Смоленская область     55°05′03″N   35°05′13″E
темп.,
°C
ветер,
м/с
пор.,
м/с
влажн.,
%
обл.,
%
осадки,
мм/ч
давл.,
гПа
погр.,
м
15 мая, сб
сб1500:00+12в389931 1.0 1008204
03:00+11юв2798100 1.0 1008147
06:00+11ююв289813 0.0 1008217
09:00+17ю36815 0.1 1008460
12:00+19ююз58620 1.3 10081602
15:00+19ююз47689 2.6 10081431
18:00+16ююз48855 1.9 1008807
21:00+13ю310965 2.6 1009387
16 мая, вс
вс1600:00+12ю3119836 0.0 1010381
03:00+10ю299924 0.0 1011226
06:00+11ю310978 0.0 1012311
09:00+15ююз47775 0.0 1012687
12:00+17юз4682100 1.1 1013961
15:00+19юз356955 2.6 10131233
18:00+19юз24775 0.4 1013429
21:00+14юв11915 0.5 101410
17 мая, пн
пн1700:00+12вюв2294100 0.0 101418
03:00+11вюв2496100 0.0 101465
06:00+12вюв27945 0.0 1014170
09:00+18вюв376966 0.0 1013452
12:00+23вюв5757100 0.0 10101245
15:00+25вюв5105597 0.0 10081561
18:00+24юв5116296 0.0 10061191
21:00+19юв4147719 0.0 1006626
18 мая, вт
вт1800:00+17юв41384100 0.2 1006486
03:00+15юв3993100 0.2 1005258
06:00+15ююв1595100 0.0 1005199
09:00+19юв3582100 0.4 1004512
12:00+19ююв3583100 0.3 1005693
15:00+21ююв5884100 2.6 1004962
18:00+17юз2595100 2.9 1004302
21:00+14юз2597100 3.8 1006187
19 мая, ср
ср1900:00+13ююз1297100 0.3 100652
03:00+13в1197100 0.4 100626
06:00+14в1397100 0.5 1004130
09:00+14юв2598100 3.6 1004383
12:00+14ююз3697100 6.6 1003437
15:00+13зсз71293100 7.8 1005830
18:00+12з41192100 0.3 1009727
21:00+10зюз2296100 0.3 101138